Miscellaneous Local Product
Issued by NWS Hastings, NE

Home | Current Version | Previous Version | Text Only | Print | Product List | Glossary On
Versions: 1 2 3 4 5 6 7 8 9 10 11 12 13 14 15 16 17 18 19 20 21 22 23 24 25 26 27 28 29 30 31 32 33 34 35 36 37 38 39 40 41 42 43 44 45 46 47 48 49 50
000
AXUS43 KGID 110302
MISGRI

GID CWA HOURLY WEATHER ROUNDUP
NATIONAL WEATHER SERVICE HASTINGS NE
1000 PM CDT THU JUL 10 2014

NOTE: "FAIR" INDICATES FEW OR NO CLOUDS BELOW 12,000 FEET WITH NO
SIGNIFICANT WEATHER AND/OR OBSTRUCTIONS TO VISIBILITY.

...SOUTH CENTRAL NEBRASKA...

CITY           SKY/WX    TMP DP  RH WIND       PRES   REMARKS
GRAND ISLAND   CLEAR     76  65  68 SE16      29.95R
HASTINGS       CLEAR     76  63  64 SE12      29.95R
KEARNEY        CLEAR     75  64  69 SE13      29.94R
ORD            MOCLDY    75  66  73 SE9       29.92R
YORK           CLEAR     73  68  83 SE10      29.97R
AURORA         CLEAR     74  67  77 SE9       29.96R
LEXINGTON      CLEAR     77  68  74 SE13      29.92R
HOLDREGE       CLEAR     75  66  74 SE9       29.94R
HEBRON         CLEAR     77  64  65 SE9       29.97R

...NEBRASKA PANHANDLE...

CITY           SKY/WX    TMP DP  RH WIND       PRES   REMARKS
CHADRON        LGT RAIN  68  66  93 SW13      29.99R
ALLIANCE       CLOUDY    66  63  90 NW16      30.01R
SCOTTSBLUFF    CLOUDY    73  61  65 N13       29.98S
SIDNEY         CLOUDY    78  53  41 E8        29.95R

...WESTERN AND NORTH CENTRAL NEBRASKA...

CITY           SKY/WX    TMP DP  RH WIND       PRES   REMARKS
VALENTINE      PTCLDY    80  68  66 S21G28    29.88R
AINSWORTH      CLEAR     77  66  69 S15       29.90R
ONEILL         PTCLDY    77  65  65 S13       29.92R
BROKEN BOW     PTCLDY    76  66  71 SE12      29.92R
IMPERIAL       PTCLDY    76  65  68 SE10      29.91R
NORTH PLATTE   PTCLDY    78  66  66 SE9       29.90R
MCCOOK         CLEAR     78  69  73 SE12      29.91R

...EASTERN NEBRASKA...

CITY           SKY/WX    TMP DP  RH WIND       PRES   REMARKS
NORFOLK        CLEAR     76  66  71 S12       29.94R
SO SIOUX CITY  CLEAR     77  67  71 SE9       29.95R
TEKAMAH        CLEAR     77  66  68 SE14      29.97R
ALBION         PTCLDY    74  65  73 SE10      29.95R
OMAHA EPPLEY   PTCLDY    77  64  64 SE18      29.98S
OFFUTT AFB     CLEAR     74  69  84 SE14      29.99S
MILLARD        CLEAR     76  67  73 SE13      29.99R
LINCOLN        CLEAR     79  63  57 SE15      29.99R
NEBRASKA CITY  CLEAR     73  66  77 SE10      30.01R
BEATRICE       CLEAR     73  65  74 SE7       29.99R
FALLS CITY     CLEAR     74  67  78 SE9       30.01R

...NORTHERN KANSAS...

CITY           SKY/WX    TMP DP  RH WIND       PRES   REMARKS
GOODLAND       CLEAR     79  68  69 SE17      29.93R
HILL CITY      CLEAR     77  69  76 SE13      29.93R
NORTON         CLEAR     75  64  69 SE13G18   29.92R
PHILLIPSBURG   CLEAR     79  66  65 SE10      29.93R
SMITH CENTER   CLEAR     75  66  73 SE14      29.94R
BELOIT         CLEAR     77  64  65 SE10      29.94R
HAYS           CLEAR     75  63  64 SE20      29.95R
RUSSELL        CLEAR     76  68  76 MISG      29.93R
CONCORDIA      CLEAR     76  66  71 SE13      29.97R
SALINA         CLEAR     79  67  66 SE13      29.97R
TOPEKA         CLEAR     77  66  68 SE9       30.03R



USA.gov is the U.S. government's official web portal to all federal, state and local government web resources and services.